This demonstration page uses our WeatherBlox Daily Observations layout. Learn more.

Left ArrowRight Arrow

39.92423, -83.80882

Hourly Observations for April 22, 2020

Temp ( °F °C ) Dew Point ( °F °C ) Humidity (%) Winds ( mph kmh ) Pressure ( in mb ) Visibility ( mi km ) Precip ( " mm )
12:56 am 00:56 Clear 34 1.1 21 -6.1 59 59 Calm 30.06 1018 10 16.0934 0 0
1:56 am 01:56 Clear 32 0 26 -3.3 79 79 Calm 30.06 1018 10 16.0934 0 0
2:56 am 02:56 Clear 30 -1.1 28 -2.2 92 92 Calm 30.06 1018 10 16.0934 0 0
3:56 am 03:56 Clear 29 -1.7 25 -3.9 85 85 Calm 30.06 1018 10 16.0934 0 0
4:56 am 04:56 Clear 29 -1.7 26 -3.3 89 89 Calm 30.08 1019 10 16.0934 0 0
5:56 am 05:56 Clear 30 -1.1 25 -3.9 82 82 SSE 6 9 30.08 1019 10 16.0934 0 0
6:56 am 06:56 Partly Cloudy 28 -2.2 25 -3.9 88 88 ESE 3 6 30.1 1019 10 16.0934 0 0
7:56 am 07:56 Mostly Cloudy 32 0 25 -3.9 75 75 ESE 3 6 30.13 1020 10 16.0934 0 0
8:56 am 08:56 Mostly Sunny 39 3.9 25 -3.9 57 57 SE 6 9 30.14 1021 10 16.0934 0 0
9:56 am 09:56 Partly Cloudy 41 5 21 -6.1 45 45 SSE 10 17 30.13 1020 10 16.0934 0 0
10:56 am 10:56 Mostly Sunny 46 7.8 23 -5 40 40 SSE 9 15 30.12 1020 10 16.0934 0 0
11:56 am 11:56 Mostly Sunny 49 9.4 24 -4.4 38 38 VRB 6 9 30.08 1019 10 16.0934 0 0
12:56 pm 12:56 Partly Cloudy 52 11.1 25 -3.9 35 35 S 10 17 30.06 1018 10 16.0934 0 0
1:56 pm 13:56 Cloudy 53 11.7 26 -3.3 35 35 SSW 6 9 30.04 1017 10 16.0934 0 0
2:56 pm 14:56 Cloudy 55 12.8 28 -2.2 35 35 S 8 13 30.02 1017 10 16.0934 0 0
3:56 pm 15:56 Mostly Cloudy 57 13.9 30 -1.1 36 36 S 7 11 29.99 1016 10 16.0934 0 0
4:56 pm 16:56 Mostly Sunny 60 15.6 32 0 35 35 VRB 6 9 29.96 1014 10 16.0934 0 0
5:56 pm 17:56 Partly Cloudy 63 17.2 36 2.2 37 37 SE 6 9 29.94 1014 10 16.0934 0 0
6:56 pm 18:56 Sunny 65 18.3 37 2.8 36 36 SSW 14 22 29.9 1013 10 16.0934 0 0
7:56 pm 19:56 Sunny 63 17.2 39 3.9 41 41 SSW 8 13 29.9 1013 10 16.0934 0 0
8:56 pm 20:56 Clear 61 16.1 39 3.9 44 44 S 6 9 29.91 1013 10 16.0934 0 0
9:56 pm 21:56 Clear 58 14.4 39 3.9 50 50 S 7 11 29.93 1014 10 16.0934 0 0
10:56 pm 22:56 Clear 58 14.4 40 4.4 51 51 S 9 15 29.93 1013 10 16.0934 0 0
11:56 pm 23:56 Mostly Clear 57 13.9 41 5 55 55 S 7 11 29.91 1013 10 16.0934 0 0

Powered by AerisWeather